Regional Weather Roundup
Issued by NWS

Home | Current Version | Previous Version | Graphics & Text | Print | Product List | Glossary On
Versions: 1 2 3 4 5 6 7 8 9 10 11 12 13 14 15 16 17 18 19 20 21 22 23 24 25 26 27
000
ASUS45 KBOU 270907
RWRCO

WEATHER ROUNDUP FOR COLORADO
NATIONAL WEATHER SERVICE DENVER/BOULDER CO
300 AM MDT WED JUL 27 2016

NOTE: "FAIR" INDICATES FEW OR NO CLOUDS BELOW 12000 FEET WITH NO
SIGNIFICANT WEATHER AND/OR OBSTRUCTIONS TO VISIBILITY.

COZ001>005-013-030-031-271000-
...NORTHWEST COLORADO...

CITY           SKY/WX    TMP DP  RH WIND       PRES   REMARKS
CRAIG          FAIR      48  41  76 CALM      30.25S
HAYDEN         FAIR      54  37  54 E7        30.27S
MEEKER         FAIR      53  42  66 NE5       30.27S
MOUNT WERNER   NOT AVBL
STEAMBOAT SPGS FAIR      49  38  68 CALM      30.30F
WALDEN         FAIR      41  32  70 SE10      30.40F
$$

COZ006>008-011-271000-
...WEST CENTRAL VALLEYS...

CITY           SKY/WX    TMP DP  RH WIND       PRES   REMARKS
GRAND JUNCTION FAIR      70  42  36 SE9       30.12S
MONTROSE       FAIR      60  43  53 SE7       30.24S
EAGLE          FAIR      54  39  58 SE3       30.34R
RIFLE          FAIR      60  44  55 E3        30.22R
DELTA          FAIR      70  40  34 NE7       30.19R
NUCLA          FAIR      64  41  42 E10       30.26S
$$

COZ017>023-064>068-271000-
...SOUTHWEST COLORADO...

CITY           SKY/WX    TMP DP  RH WIND       PRES   REMARKS
DURANGO        FAIR      57  48  72 CALM      30.29S
CORTEZ         FAIR      57  45  64 CALM      30.23S
PAGOSA SPRINGS FAIR      54  43  68 CALM      30.37F
TELLURIDE      FAIR      55  40  55 SE6       30.50S
WOLF CREEK PAS FAIR      48  34  57 CALM      30.70F
$$

COZ009-010-012-014-032>034-037-058>063-271000-
...CENTRAL COLORADO...

CITY           SKY/WX    TMP DP  RH WIND       PRES   REMARKS
ASPEN          FAIR      51  39  63 S3        30.37F
BUENA VISTA    FAIR      56  36  46 W15       30.38F
COPPER MTN     FAIR      54  23  30 SW6       30.69S
BERTHOUD PASS  FAIR      45  32  61 N16       30.71F
COTTONWOOD PAS FAIR      61  28  29 SW17G23   30.51F
GUNNISON       FAIR      50  37  62 E3        30.43S
KREMMLING      FAIR      43  37  81 CALM      30.40S
LEADVILLE      FAIR      41  31  67 CALM      30.53F
MONARCH PASS   FAIR      50  30  46 MISG      30.78F
SALIDA         FAIR      57  40  52 W7        30.45S
SUNLIGHT       FAIR      55  34  44 MISG      30.62S
WILKERSON PASS FAIR      52  28  40 W8        30.64S
$$

COZ069>075-271000-
...SAN LUIS VALLEY/SANGRE DE CRISTO MOUNTAINS...

CITY           SKY/WX    TMP DP  RH WIND       PRES   REMARKS
ALAMOSA        FAIR      54  46  74 NW5       30.34F
LA VETA PASS   NOT AVBL
SAGUACHE       FAIR      54  41  62 N8        30.39S
$$

COZ035-036-038>040-271000-
...NORTHERN COLORADO FRONT RANGE...

CITY           SKY/WX    TMP DP  RH WIND       PRES   REMARKS
DENVER INTL AP FAIR      69  51  52 S14       30.15S
DMNS CITY PARK   N/A     65  45  47 W3        30.15S
AURORA         PTCLDY    68  57  69 S15       30.18S
FRONT RANGE AP NOT AVBL
ERIE MUNI ARPT FAIR      59  47  64 SW3       30.14S
BOULDER MUN AP FAIR      64  41  42 S5        30.15R
CENTENNIAL     FAIR      67  55  65 S10       30.19S
BROOMFIELD     FAIR      66  43  42 CALM      30.18S
LONGMONT       FAIR      58  44  60 W5        30.15S
$$

COZ041-046-047-076>085-087-088-271000-
...PIKES PEAK/PALMER DIVIDE AND SOUTHERN FOOTHILLS...

CITY           SKY/WX    TMP DP  RH WIND       PRES   REMARKS
COLO. SPRINGS  FAIR      64  57  78 E5        30.28S
A. F. ACADEMY  CLOUDY    64  58  82 SE6       30.28S
SCHRIEVER AFB  NOT AVBL
ELLICOTT       FAIR     N/A N/A N/A SE12      30.24S
FALCON         NOT AVBL
FORT CARSON    MOCLDY    64  58  79 SE2       30.23F
LIMON          NOT AVBL
MONUMENT HILL  FAIR      59  57  94 S13G22    30.31S
TRINIDAD       NOT AVBL
$$

COZ042>045-048>051-090-091-271000-
...NORTHEAST COLORADO...

CITY           SKY/WX    TMP DP  RH WIND       PRES   REMARKS
GREELEY ARPT   FAIR      55  52  88 NW5       30.12F
AKRON          FAIR      63  55  75 SE5       30.12S
BURLINGTON     FAIR      70  52  52 SW14      30.09R
WRAY           NOT AVBL
STERLING       FAIR      64  55  72 CALM      30.07F
HOLYOKE        FAIR      66  61  82 W15       30.11R
FORT MORGAN    FAIR      61  55  78 SE5       30.11S
$$

COZ086-089-092>099-271000-
...SOUTHEAST COLORADO...

CITY           SKY/WX    TMP DP  RH WIND       PRES   REMARKS
PUEBLO         FAIR      69  61  75 E5        30.14S
LA JUNTA       FAIR      70  57  63 SE21G26   30.11F
LAMAR          FAIR      70  55  59 SE21G35   30.05F
SPRINGFIELD      N/A     68  64  87 NE16      30.14S
$$




USA.gov is the U.S. government's official web portal to all federal, state and local government web resources and services.